Flag for U.S.A. Weather past 2 weeks in Coeur d'Alene, Idaho, U.S.A.

Now
61 °F

Passing clouds.


Feels Like: 61 °F
Forecast: 52 / 68 °F
Wind: 9 mph from South

Location: Coeur d'Alene Weather Reporting System

Current Time: Sep 2, 2015 at 6:22:04 AM

Latest Report: Sep 2, 2015 at 5:55 AM


Visibility: 10 mi

Pressure: 29.77 "Hg (27.55 "Hg at 655m altitude)

Humidity: 55%

Dew point: 45 °F

Location of Coeur d'AleneLocation

Historic Weather in Coeur d'Alene — Graph

°F

Coeur d'Alene temperature yesterday

Maximum temperature yesterday: 75 °F (at 2:35 PM)
Minimum temperature yesterday: 54 °F (at 3:35 AM)
Average temperature yesterday: 63 °F

Past Weeks' High & Low Weather Summary

 TemperatureHumidityPressure
High93 °F (Aug 26, 2:55 PM)100% (Aug 19, 6:35 AM)30.19 "Hg (Aug 19, 6:35 AM)
Low48 °F (Aug 18, 5:55 AM)10% (Aug 19, 5:55 AM)29.65 "Hg (Aug 29, 7:55 AM)
Average67 °F42%29.93 "Hg
* Reported Aug 18 5:15 AM — Sep 2 5:15 AM, Coeur d'Alene, Weather by CustomWeather, © 2015

Note: Actual official high and low records may vary slightly from our data, if they occured in-between our weather recording intervals... More about our weather records

Advertising

Coeur d'Alene weather history for previous 24 hours

 ConditionsComfort  
Time TempWeatherWind HumidityBarometerVisibility
5:15 AM
Wed, Sep 2
61 °FClear.8 mph55%29.76 "Hg10 mi
4:55 AM61 °FPassing clouds.8 mph55%29.76 "Hg10 mi
4:35 AM61 °FPassing clouds.7 mph55%29.76 "Hg10 mi
4:15 AM61 °FPassing clouds.9 mph55%29.76 "Hg10 mi
3:55 AM61 °FPassing clouds.10 mph55%29.76 "Hg10 mi
3:35 AM61 °FClear.8 mph52%29.76 "Hg10 mi
3:15 AM61 °FClear.8 mph52%29.75 "Hg10 mi
2:55 AM61 °FPassing clouds.6 mph48%29.74 "Hg10 mi
2:35 AM61 °FClear.7 mph48%29.75 "Hg10 mi
2:15 AM63 °FClear.10 mph49%29.74 "Hg10 mi
1:55 AM63 °FClear.10 mph52%29.74 "Hg10 mi
1:35 AM63 °FClear.10 mph52%29.74 "Hg10 mi
1:15 AM63 °FClear.10 mph56%29.73 "Hg10 mi
12:55 AM63 °FClear.10 mph56%29.74 "Hg10 mi
12:35 AM63 °FClear.9 mph52%29.74 "Hg10 mi
12:15 AM63 °FClear.7 mph52%29.74 "Hg10 mi
11:55 PM
Tue, Sep 1
63 °FClear.5 mph52%29.74 "Hg10 mi
11:35 PM63 °FClear.7 mph49%29.75 "Hg10 mi
11:15 PM64 °FClear.7 mph49%29.74 "Hg10 mi
10:55 PM61 °FClear.3 mph52%29.74 "Hg10 mi
10:35 PM63 °FClear.No wind49%29.74 "Hg10 mi
10:15 PM64 °FClear.5 mph46%29.75 "Hg10 mi
9:55 PM64 °FClear.7 mph46%29.75 "Hg10 mi
9:15 PM66 °FClear.6 mph40%29.76 "Hg10 mi
8:55 PM66 °FClear.8 mph40%29.75 "Hg10 mi
8:15 PM63 °FSunny.9 mph39%29.75 "Hg10 mi
7:55 PM64 °FSunny.6 mph37%29.74 "Hg10 mi
7:35 PM66 °FSunny.6 mph35%29.74 "Hg10 mi
7:15 PM66 °FPassing clouds.7 mph32%29.75 "Hg10 mi
6:55 PM70 °FSunny.7 mph27%29.75 "Hg10 mi
6:35 PM72 °FSunny.9 mph25%29.76 "Hg10 mi
6:15 PM73 °FSunny.14 mph23%29.75 "Hg10 mi
5:55 PM73 °FSunny.13 mph23%29.76 "Hg10 mi
5:35 PM75 °FSunny.15 mph22%29.76 "Hg10 mi
5:15 PM75 °FSunny.16 mph25%29.76 "Hg10 mi
4:55 PM73 °FSunny.12 mph25%29.77 "Hg10 mi
4:35 PM75 °FSunny.13 mph25%29.77 "Hg10 mi
3:55 PM75 °FSunny.12 mph27%29.78 "Hg10 mi
2:35 PM75 °FPassing clouds.12 mph34%29.82 "Hg10 mi
2:15 PM73 °FPassing clouds.12 mph36%29.83 "Hg10 mi
1:55 PM72 °FSunny.15 mph38%29.84 "Hg10 mi
1:35 PM72 °FPassing clouds.12 mph38%29.84 "Hg10 mi
1:15 PM70 °FScattered clouds.10 mph38%29.86 "Hg10 mi
12:55 PM70 °FPartly sunny.3 mph40%29.87 "Hg10 mi
12:35 PM70 °FOvercast.7 mph40%29.88 "Hg10 mi
12:15 PM66 °FPartly sunny.5 mph46%29.89 "Hg10 mi
11:55 AM68 °FPassing clouds.9 mph46%29.90 "Hg10 mi
11:35 AM66 °FPassing clouds.8 mph46%29.91 "Hg10 mi
11:15 AM66 °FPassing clouds.8 mph46%29.91 "Hg10 mi
10:55 AM66 °FBroken clouds.13 mph49%29.92 "Hg10 mi
10:35 AM63 °FMostly cloudy.13 mph56%29.92 "Hg10 mi
10:15 AM63 °FPartly sunny.9 mph56%29.93 "Hg10 mi
9:55 AM63 °FPartly sunny.7 mph56%29.93 "Hg10 mi
9:35 AM63 °FScattered clouds.10 mph56%29.93 "Hg10 mi
9:15 AM63 °FSunny.12 mph56%29.93 "Hg10 mi
8:55 AM61 °FSunny.12 mph59%29.93 "Hg10 mi
8:35 AM61 °FSunny.10 mph59%29.94 "Hg10 mi
8:15 AM57 °FSunny.10 mph67%29.93 "Hg10 mi
7:55 AM57 °FSunny.9 mph67%29.94 "Hg10 mi
7:35 AM55 °FSunny.9 mph72%29.94 "Hg10 mi
7:15 AM55 °FSunny.10 mph67%29.93 "Hg10 mi
6:55 AM54 °FClear.12 mph72%29.92 "Hg10 mi
6:35 AM54 °FClear.10 mph72%29.92 "Hg10 mi
6:15 AM54 °FClear.10 mph72%29.91 "Hg10 mi
Weather by CustomWeather, © 2015

See weather overviewHow to use our weather pages